Location: Cheyres
(46.8153°N, 6.7877°E)
Time: 01:21:02
(UTC+00:00)

CUBEBUG 2 - Pass Details

Date: 03 July 2022
Orbit: 584 x 692 km, 97.7° (Epoch: 16 August)

Event Time Altitude Azimuth Distance (km) Brightness Sun altitude
Rises 01:23:56 0° 30° (NNE) 2,841 ? -16.2°
Reaches altitude 10° 01:26:54 10° 54° (NE) 1,947 ? -15.9°
Maximum altitude 01:29:25 15° 91° (E) 1,630 ? -15.7°
Drops below altitude 10° 01:31:59 10° 128° (SE) 1,970 ? -15.5°
Enters shadow 01:34:03 - 145° (SE) 2,569 ? -15.4°
